Tracking 30157 objects as of 13-Feb-2025
HD Live streaming from Space Station
objects crossing your sky now

ONEWEB-0316

Track ONEWEB-0316 now!
10-day predictions
ONEWEB-0316 is classified as:


NORAD ID: 49102
Int'l Code: 2021-075AD
Perigee: 1,195.6 km
Apogee: 1,198.2 km
Inclination: 87.9 °
Period: 109.2 minutes
Semi major axis: 7567 km
RCS: Unknown
Launch date: August 21, 2021
Source: United Kingdom (UK)
Launch site: TYURATAM MISSILE AND SPACE COMPLEX (TTMTR)
Your satellite tracking list
Your tracking list is empty




NASA's NSSDC Master Catalog

Two Line Element Set (TLE):
1 49102U 21075AD  25043.60434086  .00000039  00000-0  66362-4 0  9995
2 49102  87.9053  72.8402 0001680  90.4741 269.6584 13.18686437172684
Source of the keplerian elements: AFSPC